Location: Mount Cross
(36.6390°N, 79.4878°W)
Time: 04:47:53
(UTC+00:00)

Vanguard 1 - Visible Passes

Search period start: 19 April 2024 00:00
Search period end: 29 April 2024 00:00
Orbit: 653 x 3825 km, 34.2° (Epoch: 17 April)

Date Brightness Start Highest point End Pass type
(mag) Time Alt. Az. Time Alt. Az. Time Alt. Az.
19 Apr 13.5 06:51:55 26° SSE 06:57:18 29° SE 07:12:03 10° E visible
19 Apr 12.7 09:04:32 18° SW 09:22:06 57° SSE 09:36:03 10° E visible
20 Apr 13.3 07:10:42 31° S 07:17:43 36° SE 07:33:31 10° E visible
20 Apr 12.6 09:23:19 15° SW 09:42:44 65° SSE 09:56:28 10° E visible
21 Apr 13.9 05:16:47 15° SE 05:16:47 15° SE 05:24:46 10° ESE visible
21 Apr 13.1 07:29:24 34° S 07:38:10 44° SSE 07:54:34 10° E visible
21 Apr 12.5 09:42:00 12° WSW 10:03:23 72° SSE 10:16:51 10° E visible
22 Apr 13.6 05:35:24 22° SE 05:35:24 22° SE 05:48:33 10° E visible
22 Apr 12.9 07:48:00 34° SSW 07:58:40 52° SSE 08:15:20 10° E visible
22 Apr 12.5 10:01:49 10° WSW 10:24:03 77° SSE 10:37:11 10° E visible
23 Apr 13.4 05:53:56 30° SE 05:54:14 30° SE 06:10:50 10° E visible
23 Apr 12.8 08:06:31 33° SW 08:19:15 60° SSE 08:35:56 10° E visible
24 Apr 13.2 06:12:22 37° SSE 06:14:27 37° SE 06:32:22 10° E visible
24 Apr 12.7 08:24:57 29° SW 08:39:53 67° SSE 08:56:26 10° E visible
25 Apr 13.9 04:18:09 13° ESE 04:18:09 13° ESE 04:22:08 10° E visible
25 Apr 13.0 06:30:44 43° SSE 06:34:46 45° SE 06:53:29 10° E visible
25 Apr 12.7 08:43:18 24° WSW 09:00:35 73° SSE 09:16:52 10° E visible
26 Apr 13.7 04:36:26 21° ESE 04:36:26 21° ESE 04:46:07 10° E visible
26 Apr 12.9 06:49:00 46° S 06:55:09 53° SSE 07:14:20 10° E visible
26 Apr 12.7 09:01:34 18° WSW 09:21:22 78° SSE 09:37:17 10° E visible
27 Apr 13.4 04:54:38 29° ESE 04:54:38 29° ESE 05:08:34 10° E visible
27 Apr 12.8 07:07:11 45° SSW 07:15:40 61° SSE 07:35:01 10° E visible
27 Apr 12.7 09:19:45 13° WSW 09:42:10 82° S 09:57:39 10° E visible
28 Apr 13.2 05:12:45 37° SE 05:12:45 37° SE 05:30:14 10° E visible
28 Apr 12.8 07:25:18 41° SW 07:36:17 68° SSE 07:55:37 10° E visible
28 Apr 12.6 09:39:28 10° W 10:02:59 83° S 10:18:01 10° E visible
